Home > Weather > Swanage > Past weeks

Flag for United Kingdom Past Weather in Swanage, England, United Kingdom — Yesterday and Last 2 Weeks

Now
59 °F

Passing clouds.


Feels Like: 57 °F
Forecast: 52 / 65 °F
Wind: 9 mph from West

Location: Bournemouth Airport

Current Time: Jun 24, 2016 at 9:30:06 PM

Latest Report: Jun 24, 2016 at 8:50 PM


Visibility: N/A

Pressure: 30.07 "Hg

Humidity: 82%

Dew Point: 54 °F

Location of SwanageLocation

Past Weather in Swanage — Graph

°F

Swanage Temperature Yesterday

Maximum temperature yesterday: 70 °F (at 11:20 AM)
Minimum temperature yesterday: 52 °F (at 11:20 PM)
Average temperature yesterday: 64 °F

High & Low Weather Summary for the Past Weeks

 TemperatureHumidityPressure
High72 °F (Jun 20, 3:20 PM)100% (Jun 11, 6:50 AM)30.27 "Hg (Jun 11, 6:50 AM)
Low50 °F (Jun 19, 5:50 AM)60% (Jun 11, 4:50 PM)29.39 "Hg (Jun 14, 5:50 PM)
Average61 °F84%29.85 "Hg
* Reported Jun 9 7:20 PM — Jun 24 7:50 PM, Swanage, Weather by CustomWeather, © 2016

Note: Actual official high and low records may vary slightly from our data, if they occured in-between our weather recording intervals... More about our weather records

Advertising

Swanage Weather History for the Previous 24 Hours

Scroll right to see more
 ConditionsComfort  
Time TempWeatherWind HumidityBarometerVisibility
7:50 PM
Fri, Jun 24
61 °FPassing clouds.14 mph77%30.07 "HgN/A
7:20 PM63 °FPassing clouds.15 mph73%30.04 "HgN/A
6:50 PM64 °FPassing clouds.15 mph68%30.04 "HgN/A
6:20 PM64 °FPassing clouds.13 mph73%30.04 "HgN/A
5:50 PM63 °FScattered clouds.16 mph73%30.07 "HgN/A
5:20 PM64 °FScattered clouds.16 mph68%30.07 "HgN/A
4:50 PM64 °FScattered clouds.16 mph68%30.07 "HgN/A
4:20 PM63 °FScattered clouds.17 mph73%30.07 "HgN/A
3:50 PM64 °FScattered clouds.16 mph73%30.07 "HgN/A
3:20 PM63 °FPartly sunny.16 mph77%30.07 "HgN/A
2:50 PM63 °FPartly sunny.17 mph77%30.07 "HgN/A
2:20 PM64 °FBroken clouds.13 mph73%30.07 "HgN/A
1:50 PM64 °FScattered clouds.16 mph73%30.07 "HgN/A
1:20 PM64 °FScattered clouds.15 mph73%30.07 "HgN/A
12:50 PM64 °FScattered clouds.16 mph73%30.09 "HgN/A
12:20 PM64 °FScattered clouds.14 mph73%30.09 "HgN/A
11:50 AM64 °FBroken clouds.15 mph73%30.09 "HgN/A
10:50 AM63 °FBroken clouds.14 mph77%30.09 "HgN/A
10:20 AM64 °FBroken clouds.12 mph78%30.09 "HgN/A
9:50 AM63 °FBroken clouds.7 mph88%30.09 "HgN/A
9:20 AM63 °FBroken clouds.8 mph83%30.09 "HgN/A
8:50 AM63 °FBroken clouds.9 mph83%30.09 "HgN/A
8:20 AM63 °FScattered clouds.10 mph88%30.09 "HgN/A
7:50 AM59 °FScattered clouds.8 mph94%30.09 "HgN/A
7:20 AM59 °FScattered clouds.8 mph94%30.09 "HgN/A
6:50 AM55 °FPassing clouds.3 mph100%30.07 "HgN/A
6:20 AM52 °FPassing clouds.1 mph100%30.07 "HgN/A
12:50 AM52 °FFog.2 mph100%30.07 "HgN/A
12:20 AM52 °FClear.5 mph94%30.07 "Hg10 mi
11:50 PM
Thu, Jun 23
54 °FClear.3 mph94%30.07 "Hg10 mi
11:20 PM52 °FClear.6 mph94%30.07 "Hg10 mi
10:50 PM54 °FClear.5 mph94%30.07 "Hg10 mi
10:20 PM55 °FFog.3 mph94%30.07 "HgN/A
9:50 PM57 °FSunny.2 mph82%30.04 "Hg10 mi
9:20 PM57 °FSunny.6 mph82%30.04 "Hg10 mi
Weather by CustomWeather, © 2016

See weather overviewHow to use our weather pages